Regional Weather Roundup
Issued by NWS

Home | Current Version | Previous Version | Text Only | Print | Product List | Glossary On
Versions: 1 2 3 4 5 6 7 8 9 10 11 12 13 14 15 16 17 18 19 20 21 22 23 24 25 26 27 28 29 30 31 32 33 34 35 36 37 38 39 40 41 42 43 44 45 46 47 48 49 50
322
ASUS44 KJAN 011210
RWRMS

MISSISSIPPI HOURLY WEATHER ROUNDUP
NATIONAL WEATHER SERVICE JACKSON MS
700 AM CDT WED OCT 01 2014

NOTE: "FAIR: INDICATES FEW OR NO CLOUDS BELOW 12,000 FEET WITH NO
SIGNIFICANT WEATHER AND/OR OBSTRUCTIONS TO VISIBILITY.

MSZ001>002-007>008-010>013-018>021-025>028-034>036-011300-
NORTHWEST MISSISSIPPI

CITY           SKY/WX    TMP DP  RH WIND       PRES   REMARKS
CLARKSDALE     FAIR      66  64  94 SE6       29.91S
CLEVELAND      PTSUNNY   71  67  88 SE7       29.90S
GREENWOOD      CLEAR     63  60  90 CALM      29.93R
6HR MIN TEMP:  62; 6HR MAX TEMP:  72;

GREENVILLE     CLOUDY    72  66  81 SE6       29.89S
6HR MIN TEMP:  68; 6HR MAX TEMP:  72;

GRENADA        FAIR      59  59 100 CALM      29.94R
OLIVE BRANCH   PTCLDY    64  64 100 CALM      29.93S
OXFORD         FAIR      61  59  94 CALM      29.95S
TUNICA         SUNNY     64  61  88 SE3       29.92R
$$

MSZ003>006-009-014>017-022>024-029>033-037>039-011300-
NORTHEAST MISSISSIPPI

CITY           SKY/WX    TMP DP  RH WIND       PRES   REMARKS
COLUMBUS AFB   CLEAR     60  60 100 CALM      29.95R
6HR MIN TEMP:  58; 6HR MAX TEMP:  64;

CORINTH          N/A     57  55  94 CALM      29.95R
GOLDN TRIANGLE CLEAR     63  55  77 CALM      29.94R
STARKVILLE     FAIR      59  57  94 CALM      29.94S
TUPELO         CLEAR     60  58  92 CALM      29.95R
6HR MIN TEMP:  60; 6HR MAX TEMP:  66;

$$

MSZ040-058-011300-
CENTRAL MISSISSIPPI

CITY           SKY/WX    TMP DP  RH WIND       PRES   REMARKS
JACKSON INTL   CLOUDY    71  69  93 SE5       29.93R FOG
6HR MIN TEMP:  65; 6HR MAX TEMP:  71;

JACKSON HAWKNS CLOUDY    72  69  90 SE3       29.92S FOG
6HR MIN TEMP:  70; 6HR MAX TEMP:  72;

MERIDIAN KEY   CLEAR     60  58  92 CALM      29.95R
6HR MIN TEMP:  60; 6HR MAX TEMP:  63;

MERIDIAN NAS   CLEAR     60  57  89 CALM      29.96R
6HR MIN TEMP:  60; 6HR MAX TEMP:  65;

RAYMOND        FAIR      70  64  83 MISG      29.92S HAZE
VICKSBURG      PTCLDY    72  68  87 SE5       29.90R
6HR MIN TEMP:  72; 6HR MAX TEMP:  75;

$$

MSZ059>079-011300-
SOUTH MISSISSIPPI

CITY           SKY/WX    TMP DP  RH WIND       PRES   REMARKS
BROOKHAVEN     CLOUDY    72  72 100 CALM      29.94S FOG
COLUMBIA       FOG       64  64 100 CALM      29.92R VSB 1/4
HATTIESBURG    FOG       66  65  96 CALM      29.94S VSB 1/4
6HR MIN TEMP:  66; 6HR MAX TEMP:  69;

MCCOMB         FOG       71  70  96 CALM      29.93R VSB 1/2
6HR MIN TEMP:  71; 6HR MAX TEMP:  72;

NATCHEZ        CLOUDY    72  70  94 SE7       29.91R
6HR MIN TEMP:  72; 6HR MAX TEMP:  73;

PINE BELT      MOCLDY    64  63  94 CALM      29.95R VSB 3/4
$$

MSZ080>082-011300-
COASTAL MISSISSIPPI

CITY           SKY/WX    TMP DP  RH WIND       PRES   REMARKS
BAY ST LOUIS   CLEAR     70  66  88 CALM      29.92  FOG
BILOXI         CLEAR     71  71 100 E8        29.92R
6HR MIN TEMP:  70; 6HR MAX TEMP:  74;

PASCAGOULA     CLEAR     65  64  97 CALM      29.93R
6HR MIN TEMP:  63; 6HR MAX TEMP:  67;

GULFPORT       PTCLDY    71  69  93 NE3       29.92R
6HR MIN TEMP:  70; 6HR MAX TEMP:  73;

$$



USA.gov is the U.S. government's official web portal to all federal, state and local government web resources and services.